NU3S-7 Weather Reports


time (UTC)temp
C
wind
direction
speed
KPH
gust
KPH
rain 1hr
cm
rain 24hr
cm
rain mn
cm
humidity
%
barometer
mb
20260831054252 21 0 0.0 0.0 0.00 0.00 0.00 95 1019.5
20260831054138 21 0 0.0 0.0 0.00 0.00 0.00 95 1019.5
20260831052950 21 0 0.0 0.0 0.00 0.00 0.00 95 1019.6
20260831052913 21 0 0.0 0.0 0.00 0.00 0.00 95 1019.6
20260831043910 22 125 0.0 4.8 0.00 0.00 0.00 94 1019.7
20260831040909 22 0 0.0 0.0 0.00 0.00 0.00 93 1019.9
20260831032904 22 114 0.0 3.2 0.00 0.00 0.00 93 1020.3
20260831031904 22 86 1.6 4.8 0.00 0.00 0.00 93 1020.4
20260831030903 22 0 0.0 0.0 0.00 0.00 0.00 93 1020.6
20260831023859 22 0 0.0 0.0 0.00 0.00 0.00 91 1020.5
20260831020858 22 0 0.0 0.0 0.00 0.00 0.00 91 1020.3
20260831015857 22 0 0.0 0.0 0.00 0.00 0.00 91 1020.1
20260831012856 23 0 0.0 0.0 0.00 0.00 0.00 89 1019.4
20260831011856 23 34 0.0 3.2 0.00 0.00 0.00 88 1019.3
20260831010926 23 0 0.0 0.0 0.00 0.00 0.00 88 1019.2
20260831010854 23 0 0.0 0.0 0.00 0.00 0.00 88 1019.2
20260831005957 23 174 1.6 8.0 0.00 0.00 0.00 84 1018.9
20260831005854 23 174 1.6 8.0 0.00 0.00 0.00 84 1018.9
20260831004853 24 0 0.0 0.0 0.00 0.00 0.00 82 1019.1
20260831004130 24 0 0.0 0.0 0.00 0.00 0.00 82 1018.8
20260831003853 24 0 0.0 0.0 0.00 0.00 0.00 82 1018.8
20260831002853 25 107 0.0 1.6 0.00 0.00 0.00 80 1018.7
20260831001850 25 96 0.0 3.2 0.00 0.00 0.00 81 1018.6
20260831001452 24 37 0.0 3.2 0.00 0.00 0.00 81 1018.4
20260831000850 24 37 0.0 3.2 0.00 0.00 0.00 81 1018.4
20260830235850 25 0 0.0 0.0 0.00 0.00 0.00 81 1018.5
20260830234849 25 35 1.6 6.4 0.00 0.00 0.00 80 1018.4
20260830232849 25 100 1.6 8.0 0.00 0.00 0.00 80 1018.3
20260830231848 26 111 0.0 6.4 0.00 0.00 0.00 79 1018.4
20260830230848 26 96 0.0 3.2 0.00 0.00 0.00 80 1018.3
20260830230021 26 0 0.0 0.0 0.00 0.00 0.00 80 1018.3
20260830225847 26 0 0.0 0.0 0.00 0.00 0.00 80 1018.3
20260830223845 26 0 0.0 0.0 0.00 0.00 0.00 79 1018.2
20260830222943 26 32 0.0 3.2 0.00 0.00 0.00 79 1018.2
20260830222843 26 32 0.0 3.2 0.00 0.00 0.00 79 1018.2
20260830220843 27 0 0.0 0.0 0.00 0.00 0.00 78 1018.3
20260830215902 27 222 0.0 3.2 0.00 0.00 0.00 80 1018.4
20260830214842 27 314 3.2 8.0 0.00 0.00 0.00 81 1018.4
20260830214005 26 342 3.2 6.4 0.00 0.00 0.00 80 1018.4
20260830213841 26 342 3.2 6.4 0.00 0.00 0.00 80 1018.4
20260830212915 27 314 1.6 6.4 0.00 0.00 0.00 78 1018.4
20260830212841 27 314 1.6 6.4 0.00 0.00 0.00 78 1018.4
20260830211942 27 339 3.2 9.7 0.00 0.00 0.00 77 1018.4
20260830211841 27 339 3.2 9.7 0.00 0.00 0.00 77 1018.4
20260830210838 27 350 1.6 11.3 0.00 0.00 0.00 76 1018.5
20260830205837 27 49 1.6 8.0 0.00 0.00 0.00 74 1018.5
20260830204837 28 318 1.6 6.4 0.00 0.00 0.00 72 1018.5
20260830202835 28 277 3.2 9.7 0.00 0.00 0.00 73 1018.6
20260830201835 28 65 1.6 6.4 0.00 0.00 0.00 75 1018.6
20260830200835 28 278 3.2 9.7 0.00 0.00 0.00 73 1018.7
20260830195834 27 291 1.6 8.0 0.00 0.00 0.00 71 1018.8
20260830192832 29 301 3.2 9.7 0.00 0.00 0.00 68 1018.9
20260830191958 29 276 8.0 16.1 0.00 0.00 0.00 68 1019.1
20260830191832 29 276 8.0 16.1 0.00 0.00 0.00 68 1019.1
20260830190831 29 266 3.2 8.0 0.00 0.00 0.00 67 1019.2
20260830185830 30 325 3.2 9.7 0.00 0.00 0.00 66 1019.4
20260830184830 30 295 4.8 12.9 0.00 0.00 0.00 69 1019.5
20260830183830 28 253 4.8 11.3 0.00 0.00 0.00 70 1019.6
20260830182829 28 308 6.4 14.5 0.00 0.00 0.00 69 1019.7
20260830181829 28 323 4.8 12.9 0.00 0.00 0.00 69 1019.8
20260830180829 28 333 6.4 16.1 0.00 0.00 0.00 69 1019.9
20260830175828 28 318 4.8 12.9 0.00 0.00 0.00 70 1020.0
20260830173828 28 357 6.4 14.5 0.00 0.00 0.00 69 1020.4
20260830171924 28 1 4.8 14.5 0.00 0.00 0.00 75 1020.5
20260830171824 28 1 4.8 14.5 0.00 0.00 0.00 75 1020.5
20260830165818 28 267 4.8 12.9 0.00 0.00 0.00 79 1020.6
20260830164848 27 311 3.2 12.9 0.00 0.00 0.00 82 1020.6
20260830160951 27 285 3.2 9.7 0.00 0.00 0.00 85 1020.7
20260830160816 27 285 3.2 9.7 0.00 0.00 0.00 85 1020.7
20260830150932 26 285 1.6 8.0 0.00 0.00 0.00 89 1020.7
20260830150811 26 285 1.6 8.0 0.00 0.00 0.00 89 1020.7
20260830150012 26 176 1.6 6.4 0.00 0.00 0.00 90 1020.7
20260830145811 26 176 1.6 6.4 0.00 0.00 0.00 90 1020.7
20260830144955 26 283 1.6 4.8 0.00 0.00 0.00 91 1020.6
20260830144811 26 283 1.6 4.8 0.00 0.00 0.00 91 1020.6
20260830143810 25 170 0.0 6.4 0.00 0.00 0.00 94 1020.6
20260830142809 24 173 0.0 3.2 0.00 0.00 0.00 95 1020.6
20260830133807 22 198 0.0 1.6 0.00 0.00 0.00 97 1020.4
20260830133006 22 191 0.0 0.0 0.00 0.00 0.00 98 1020.5
20260830132807 22 191 0.0 0.0 0.00 0.00 0.00 98 1020.5
20260830130806 21 0 0.0 0.0 0.00 0.00 0.00 100 1020.5
20260830125804 20 0 0.0 0.0 0.00 0.00 0.00 100 1020.5
20260830123800 18 0 0.0 0.0 0.00 0.00 0.00 100 1020.6
20260830122915 18 0 0.0 0.0 0.00 0.00 0.00 100 1020.6
20260830122800 18 0 0.0 0.0 0.00 0.00 0.00 100 1020.6
20260830121800 18 0 0.0 0.0 0.00 0.00 0.00 100 1020.6
20260830115948 17 0 0.0 0.0 0.00 0.00 0.00 100 1020.5
20260830115759 17 0 0.0 0.0 0.00 0.00 0.00 100 1020.5
20260830114759 17 0 0.0 0.0 0.00 0.00 0.00 100 1020.5
20260830113832 17 0 0.0 0.0 0.00 0.00 0.00 100 1020.5
20260830113757 17 0 0.0 0.0 0.00 0.00 0.00 100 1020.5
20260830112844 17 0 0.0 0.0 0.00 0.00 0.00 100 1020.5
20260830112754 17 0 0.0 0.0 0.00 0.00 0.00 100 1020.5
20260830110844 17 0 0.0 0.0 0.00 0.00 0.00 100 1020.6
20260830110749 17 0 0.0 0.0 0.00 0.00 0.00 100 1020.6
20260830110012 17 0 0.0 0.0 0.00 0.00 0.00 100 1020.5
20260830105749 17 0 0.0 0.0 0.00 0.00 0.00 100 1020.5
20260830104015 17 0 0.0 0.0 0.00 0.00 0.00 100 1020.4
20260830103748 17 0 0.0 0.0 0.00 0.00 0.00 100 1020.4
20260830101747 17 0 0.0 0.0 0.00 0.00 0.00 100 1020.3
20260830100951 17 0 0.0 0.0 0.00 0.00 0.00 100 1020.3
20260830100747 17 0 0.0 0.0 0.00 0.00 0.00 100 1020.3
20260830095842 17 0 0.0 0.0 0.00 0.00 0.00 100 1020.4
20260830095746 17 0 0.0 0.0 0.00 0.00 0.00 100 1020.4
20260830093746 17 0 0.0 0.0 0.00 0.00 0.00 100 1020.4
20260830090856 16 0 0.0 0.0 0.00 0.00 0.00 100 1020.3
20260830090743 16 0 0.0 0.0 0.00 0.00 0.00 100 1020.3
20260830085924 17 0 0.0 0.0 0.00 0.00 0.00 100 1020.4
20260830085742 17 0 0.0 0.0 0.00 0.00 0.00 100 1020.4
20260830083958 17 0 0.0 0.0 0.00 0.00 0.00 100 1020.4
20260830083740 17 0 0.0 0.0 0.00 0.00 0.00 100 1020.4
20260830082741 17 0 0.0 0.0 0.00 0.00 0.00 100 1020.4
20260830081822 17 0 0.0 0.0 0.00 0.00 0.00 100 1020.4
20260830073823 16 0 0.0 0.0 0.00 0.00 0.00 100 1020.6
20260830073731 16 0 0.0 0.0 0.00 0.00 0.00 100 1020.6
20260830070729 16 0 0.0 0.0 0.00 0.00 0.00 100 1020.7
20260830065728 16 0 0.0 0.0 0.00 0.00 0.00 100 1020.6
20260830064728 16 0 0.0 0.0 0.00 0.00 0.00 100 1020.6